Climatologie pour Saint-Brevin les Pins
Jour • Résumé pour février 13, 2017 Système :  Métrique    Anglais   Mixte
« - 1 jour
+ 1 jour »
Jour Semaine Mois Année Personnalisé
  Maximum : Minimum : Moyenne :
Température sous abri : -17.8 °C -12.7 °C -11.6 °C
Point de rosée : -17.8 °C -14.6 °C -13.6 °C
Humidité : Humidity % 66 % 79 %
Vitesse du vent : 0 km/h 0 km/h 20 km/h
Rafale : 0 km/h - -
Direction :- - ESE
Pression : 0 hPa 34097 hPa -
Précipitations : 121.92 mm    
Historical Graphs
 
 
Tableau de données pour février 13, 2017
Heure Tempé Pt rosée Pression Vent Vitesse Rafale Humidité Taux pluie (/hr) Soleil
-17.8 °C -17.8 °C 0 hPa Calm     Humidity % 0 mm SolarRadiationWatts/m^2 W/m2 Conditions
00:00 -12.7 °C -14.1 °C 34130.9 hPa East 20.8 km/h 57 km/h 85 % 0 mm 0 W/m2
00:10 -12.7 °C -14.1 °C 34130.9 hPa East 15.6 km/h 41.4 km/h 84 % 0 mm 0 W/m2
00:15 -12.7 °C -14.1 °C 34130.9 hPa East 25.9 km/h 54.4 km/h 84 % 0 mm 0 W/m2
00:20 -12.6 °C -14.1 °C 34130.9 hPa ENE 38.8 km/h 54.4 km/h 84 % 0 mm 0 W/m2
00:25 -12.6 °C -14.2 °C 34130.9 hPa ESE 18.2 km/h 46.7 km/h 83 % 0 mm 0 W/m2
00:30 -12.7 °C -14.2 °C 34130.9 hPa ESE 33.6 km/h 46.7 km/h 83 % 0 mm 0 W/m2
00:35 -12.7 °C -14.2 °C 34130.9 hPa ENE 12.9 km/h 57 km/h 83 % 0 mm 0 W/m2
00:40 -12.7 °C -14.2 °C 34130.9 hPa ESE 7.7 km/h 57 km/h 84 % 0 mm 0 W/m2
00:45 -12.7 °C -14.2 °C 34130.9 hPa ESE 41.4 km/h 44.1 km/h 83 % 0 mm 0 W/m2
00:55 -12.7 °C -14.2 °C 34130.9 hPa ESE 25.9 km/h 46.7 km/h 83 % 0 mm 0 W/m2
01:00 -12.7 °C -14.2 °C 34130.9 hPa ESE 23.3 km/h 46.7 km/h 83 % 0 mm 0 W/m2
01:10 -12.7 °C -14.2 °C 34144.4 hPa ESE 25.9 km/h 46.7 km/h 83 % 0 mm 0 W/m2
01:15 -12.6 °C -14.2 °C 34144.4 hPa East 46.7 km/h 49.2 km/h 82 % 0 mm 0 W/m2
01:25 -12.6 °C -14.2 °C 34144.4 hPa East 20.8 km/h 46.7 km/h 82 % 0 mm 0 W/m2
01:30 -12.6 °C -14.2 °C 34144.4 hPa East 18.2 km/h 44.1 km/h 82 % 0 mm 0 W/m2
01:40 -12.4 °C -14.2 °C 34130.9 hPa SSE 18.2 km/h 49.2 km/h 81 % 0 mm 0 W/m2
01:45 -12.4 °C -14.2 °C 34130.9 hPa East 41.4 km/h 49.2 km/h 81 % 0 mm 0 W/m2
01:55 -12.4 °C -14.3 °C 34120.7 hPa ENE 23.3 km/h 46.7 km/h 80 % 0 mm 0 W/m2
02:00 -12.5 °C -14.3 °C 34120.7 hPa ESE 36.2 km/h 46.7 km/h 80 % 0 mm 0 W/m2
02:10 -12.6 °C -14.3 °C 34120.7 hPa ESE 36.2 km/h 51.8 km/h 81 % 0 mm 0 W/m2
02:15 -12.6 °C -14.3 °C 34130.9 hPa ESE 18.2 km/h 57 km/h 81 % 0 mm 0 W/m2
02:25 -12.5 °C -14.3 °C 34130.9 hPa East 25.9 km/h 49.2 km/h 80 % 0 mm 0 W/m2
02:30 -12.6 °C -14.3 °C 34130.9 hPa ESE 28.5 km/h 49.2 km/h 80 % 0 mm 0 W/m2
02:40 -12.4 °C -14.3 °C 34130.9 hPa East 38.8 km/h 49.2 km/h 80 % 0 mm 0 W/m2
02:45 -12.3 °C -14.3 °C 34130.9 hPa East 25.9 km/h 59.5 km/h 79 % 0 mm 0 W/m2
02:50 -12.4 °C -14.3 °C 34130.9 hPa SE 25.9 km/h 59.5 km/h 79 % 0 mm 0 W/m2
02:55 -12.4 °C -14.3 °C 34130.9 hPa East 38.8 km/h 54.4 km/h 79 % 0 mm 0 W/m2
03:00 -12.4 °C -14.3 °C 34130.9 hPa SE 7.7 km/h 54.4 km/h 79 % 0 mm 0 W/m2
03:10 -12.3 °C -14.2 °C 34130.9 hPa SSE 10.3 km/h 54.4 km/h 79 % 0 mm 0 W/m2
03:15 -12.3 °C -14.3 °C 34130.9 hPa SE 31.1 km/h 51.8 km/h 79 % 0 mm 0 W/m2
03:20 -12.3 °C -14.3 °C 34120.7 hPa ESE 31.1 km/h 49.2 km/h 79 % 0 mm 0 W/m2
03:25 -12.3 °C -14.3 °C 34120.7 hPa East 20.8 km/h 51.8 km/h 78 % 0 mm 0 W/m2
03:30 -12.3 °C -14.3 °C 34120.7 hPa ESE 25.9 km/h 51.8 km/h 79 % 0 mm 0 W/m2
03:40 -12.3 °C -14.2 °C 34120.7 hPa ESE 28.5 km/h 51.8 km/h 79 % 0 mm 0 W/m2
03:50 -12.3 °C -14.3 °C 34107.2 hPa ESE 15.6 km/h 51.8 km/h 78 % 0 mm 0 W/m2
04:00 -12.3 °C -14.3 °C 34107.2 hPa SE 25.9 km/h 57 km/h 78 % 0 mm 0 W/m2
04:10 -12.3 °C -14.3 °C 34097 hPa SE 18.2 km/h 54.4 km/h 78 % 0 mm 0 W/m2
04:20 -12.2 °C -14.3 °C 34097 hPa East 20.8 km/h 44.1 km/h 78 % 0 mm 0 W/m2
04:25 -12.3 °C -14.3 °C 34097 hPa ESE 41.4 km/h 44.1 km/h 78 % 0 mm 0 W/m2
04:30 -12.3 °C -14.3 °C 34097 hPa ESE 18.2 km/h 54.4 km/h 78 % 0 mm 0 W/m2
04:40 -12.3 °C -14.3 °C 34097 hPa ESE 36.2 km/h 57 km/h 78 % 0 mm 0 W/m2
04:45 -12.3 °C -14.3 °C 34097 hPa East 38.8 km/h 57 km/h 78 % 0 mm 0 W/m2
04:50 -12.3 °C -14.3 °C 34097 hPa ESE 36.2 km/h 46.7 km/h 78 % 0 mm 0 W/m2
04:55 -12.2 °C -14.3 °C 34097 hPa East 33.6 km/h 62.1 km/h 77 % 0 mm 0 W/m2
05:00 -12.2 °C -14.3 °C 34097 hPa SE 20.8 km/h 62.1 km/h 77 % 0 mm 0 W/m2
05:10 -12.2 °C -14.3 °C 34097 hPa East 36.2 km/h 54.4 km/h 77 % 0 mm 0 W/m2
05:15 -12.2 °C -14.3 °C 34107.2 hPa ESE 25.9 km/h 59.5 km/h 77 % 0 mm 0 W/m2
05:20 -12.2 °C -14.3 °C 34097 hPa East 33.6 km/h 59.5 km/h 77 % 0 mm 0 W/m2
05:25 -12.2 °C -14.3 °C 34097 hPa ENE 20.8 km/h 49.2 km/h 77 % 0 mm 0 W/m2
05:35 -12.2 °C -14.3 °C 34107.2 hPa ESE 23.3 km/h 46.7 km/h 77 % 0 mm 0 W/m2
05:40 -12.2 °C -14.3 °C 34107.2 hPa SSE 25.9 km/h 57 km/h 77 % 0 mm 0 W/m2
05:45 -12.2 °C -14.3 °C 34120.7 hPa ESE 44.1 km/h 57 km/h 77 % 0 mm 0 W/m2
05:50 -12.1 °C -14.4 °C 34107.2 hPa ESE 36.2 km/h 57 km/h 76 % 0 mm 0 W/m2
06:00 -12.2 °C -14.3 °C 34120.7 hPa ESE 20.8 km/h 59.5 km/h 77 % 0 mm 0 W/m2
06:10 -12.3 °C -14.4 °C 34120.7 hPa East 41.4 km/h 62.1 km/h 77 % 0 mm 0 W/m2
06:15 -12.3 °C -14.4 °C 34107.2 hPa East 25.9 km/h 62.1 km/h 77 % 0 mm 0 W/m2
06:20 -12.3 °C -14.4 °C 34107.2 hPa ESE 54.4 km/h 54.4 km/h 77 % 0 mm 0 W/m2
06:25 -12.3 °C -14.4 °C 34120.7 hPa East 18.2 km/h 54.4 km/h 77 % 0 mm 0 W/m2
06:30 -12.3 °C -14.4 °C 34120.7 hPa SE 23.3 km/h 54.4 km/h 77 % 0 mm 0 W/m2
06:40 -12.4 °C -14.6 °C 34107.2 hPa SE 25.9 km/h 49.2 km/h 77 % 0 mm 0 W/m2
06:45 -12.4 °C -14.4 °C 34120.7 hPa ESE 20.8 km/h 49.2 km/h 78 % 0 mm 0 W/m2
06:50 -12.4 °C -14.5 °C 34120.7 hPa SE 38.8 km/h 46.7 km/h 78 % 0 mm 0 W/m2
07:00 -12.4 °C -14.4 °C 34120.7 hPa ESE 18.2 km/h 44.1 km/h 78 % 0 mm 0 W/m2
07:05 -12.4 °C -14.4 °C 34120.7 hPa ESE 25.9 km/h 44.1 km/h 78 % 0 mm 0 W/m2
07:10 -12.4 °C -14.4 °C 34120.7 hPa ESE 38.8 km/h 44.1 km/h 78 % 0 mm 0 W/m2
07:20 -12.4 °C -14.4 °C 34130.9 hPa East 20.8 km/h 59.5 km/h 78 % 0 mm 0 W/m2
07:25 -12.4 °C -14.4 °C 34130.9 hPa SE 18.2 km/h 59.5 km/h 78 % 0 mm 0 W/m2
07:30 -12.4 °C -14.5 °C 34130.9 hPa ESE 23.3 km/h 46.7 km/h 77 % 0 mm 0 W/m2
07:40 -12.3 °C -14.5 °C 34130.9 hPa ESE 20.8 km/h 44.1 km/h 77 % 0 mm 0 W/m2
07:45 -12.3 °C -14.5 °C 34130.9 hPa ESE 33.6 km/h 44.1 km/h 77 % 0 mm 0 W/m2
07:50 -12.3 °C -14.4 °C 34130.9 hPa SE 31.1 km/h 44.1 km/h 77 % 0 mm 0 W/m2
07:55 -12.3 °C -14.4 °C 34144.4 hPa ESE 20.8 km/h 51.8 km/h 77 % 0 mm 0 W/m2
08:00 -12.3 °C -14.4 °C 34144.4 hPa SSE 18.2 km/h 51.8 km/h 77 % 0 mm 0 W/m2
08:10 -12.3 °C -14.4 °C 34144.4 hPa ESE 18.2 km/h 44.1 km/h 77 % 0 mm 0 W/m2
08:15 -12.3 °C -14.4 °C 34144.4 hPa ESE 36.2 km/h 49.2 km/h 77 % 0 mm 0 W/m2
08:25 -12.3 °C -14.4 °C 34154.6 hPa East 25.9 km/h 41.4 km/h 77 % 0 mm 0 W/m2
08:30 -12.3 °C -14.3 °C 34154.6 hPa ESE 20.8 km/h 41.4 km/h 78 % 0 mm 0 W/m2
08:40 -12.3 °C -14.2 °C 34154.6 hPa ENE 18.2 km/h 41.4 km/h 80 % 0 mm 0 W/m2
08:45 -12.4 °C -14.1 °C 34154.6 hPa SE 28.5 km/h 41.4 km/h 82 % 0 mm 0 W/m2
08:55 -12.6 °C -14.2 °C 34154.6 hPa SE 20.8 km/h 41.4 km/h 82 % 0 mm 5 W/m2
09:00 -12.6 °C -14.1 °C 34154.6 hPa East 12.9 km/h 38.8 km/h 83 % 0 mm 9 W/m2
09:15 -12.5 °C -14.1 °C 34154.6 hPa ENE 12.9 km/h 38.8 km/h 82 % 7.62 mm 12 W/m2
09:20 -12.4 °C -14.1 °C 34154.6 hPa East 15.6 km/h 38.8 km/h 82 % 7.62 mm 18 W/m2
09:25 -12.4 °C -14.2 °C 34164.7 hPa ESE 20.8 km/h 44.1 km/h 81 % 7.62 mm 21 W/m2
09:30 -12.4 °C -14.1 °C 34164.7 hPa SE 18.2 km/h 44.1 km/h 81 % 7.62 mm 26 W/m2
09:40 -12.4 °C -14.2 °C 34154.6 hPa East 18.2 km/h 44.1 km/h 80 % 7.62 mm 33 W/m2
09:45 -12.3 °C -14.2 °C 34164.7 hPa East 15.6 km/h 41.4 km/h 80 % 7.62 mm 39 W/m2
09:50 -12.3 °C -14.1 °C 34164.7 hPa ESE 25.9 km/h 38.8 km/h 81 % 7.62 mm 44 W/m2
09:55 -12.4 °C -14.1 °C 34164.7 hPa SE 25.9 km/h 36.2 km/h 81 % 7.62 mm 51 W/m2
10:00 -12.4 °C -14.1 °C 34164.7 hPa SE 18.2 km/h 38.8 km/h 81 % 7.62 mm 56 W/m2
10:05 -12.3 °C -14.1 °C 34164.7 hPa East 12.9 km/h 38.8 km/h 81 % 7.62 mm 60 W/m2
10:10 -12.3 °C -14.1 °C 34154.6 hPa East 5.1 km/h 38.8 km/h 81 % 0 mm 60 W/m2
10:15 -12.3 °C -14.1 °C 34154.6 hPa ESE 31.1 km/h 38.8 km/h 81 % 0 mm 58 W/m2
10:20 -12.3 °C -14 °C 34164.7 hPa ESE 36.2 km/h 38.8 km/h 81 % 0 mm 65 W/m2
10:25 -12.3 °C -14 °C 34164.7 hPa ESE 31.1 km/h 44.1 km/h 81 % 0 mm 95 W/m2
10:30 -12.2 °C -14 °C 34154.6 hPa ENE 12.9 km/h 44.1 km/h 80 % 0 mm 128 W/m2
10:40 -12 °C -13.9 °C 34154.6 hPa ESE 25.9 km/h 44.1 km/h 79 % 0 mm 120 W/m2
10:45 -11.9 °C -13.8 °C 34154.6 hPa ESE 18.2 km/h 44.1 km/h 79 % 0 mm 132 W/m2
10:55 -11.8 °C -13.9 °C 34154.6 hPa ESE 18.2 km/h 44.1 km/h 78 % 0 mm 107 W/m2
11:00 -11.8 °C -13.9 °C 34144.4 hPa ESE 23.3 km/h 46.7 km/h 78 % 0 mm 123 W/m2
11:10 -11.7 °C -13.9 °C 34144.4 hPa East 23.3 km/h 44.1 km/h 77 % 0 mm 162 W/m2
11:15 -11.6 °C -13.8 °C 34144.4 hPa East 23.3 km/h 44.1 km/h 77 % 0 mm 160 W/m2
11:20 -11.6 °C -13.7 °C 34144.4 hPa ESE 28.5 km/h 38.8 km/h 77 % 0 mm 130 W/m2
11:25 -11.5 °C -13.8 °C 34144.4 hPa ENE 25.9 km/h 41.4 km/h 76 % 0 mm 139 W/m2
11:30 -11.4 °C -13.7 °C 34144.4 hPa SE 23.3 km/h 57 km/h 76 % 0 mm 149 W/m2
11:40 -11.3 °C -13.7 °C 34144.4 hPa ESE 41.4 km/h 54.4 km/h 75 % 0 mm 156 W/m2
11:45 -11.2 °C -13.6 °C 34144.4 hPa East 25.9 km/h 54.4 km/h 75 % 0 mm 149 W/m2
11:50 -11.2 °C -13.7 °C 34144.4 hPa ESE 23.3 km/h 54.4 km/h 74 % 0 mm 128 W/m2
11:55 -11.1 °C -13.6 °C 34154.6 hPa SSE 15.6 km/h 49.2 km/h 74 % 0 mm 144 W/m2
12:00 -11.1 °C -13.6 °C 34144.4 hPa ENE 28.5 km/h 46.7 km/h 74 % 0 mm 137 W/m2
12:10 -10.9 °C -13.6 °C 34144.4 hPa SE 28.5 km/h 54.4 km/h 73 % 0 mm 123 W/m2
12:15 -10.9 °C -13.5 °C 34144.4 hPa East 25.9 km/h 54.4 km/h 73 % 0 mm 156 W/m2
12:20 -10.8 °C -13.4 °C 34144.4 hPa East 15.6 km/h 46.7 km/h 73 % 0 mm 229 W/m2
12:25 -10.7 °C -13.4 °C 34144.4 hPa East 20.8 km/h 46.7 km/h 72 % 0 mm 211 W/m2
12:30 -10.6 °C -13.4 °C 34144.4 hPa East 18.2 km/h 54.4 km/h 71 % 0 mm 163 W/m2
12:40 -10.7 °C -13.5 °C 34144.4 hPa East 23.3 km/h 46.7 km/h 71 % 0 mm 118 W/m2
12:45 -10.7 °C -13.5 °C 34144.4 hPa East 18.2 km/h 46.7 km/h 71 % 0 mm 139 W/m2
12:55 -10.5 °C -13.3 °C 34144.4 hPa ESE 31.1 km/h 44.1 km/h 71 % 0 mm 190 W/m2
13:05 -10.3 °C -13.3 °C 34144.4 hPa East 33.6 km/h 54.4 km/h 70 % 0 mm 190 W/m2
13:10 -10.2 °C -13.3 °C 34144.4 hPa ESE 38.8 km/h 57 km/h 69 % 0 mm 183 W/m2
13:15 -10.2 °C -13.3 °C 34144.4 hPa ESE 28.5 km/h 57 km/h 69 % 0 mm 186 W/m2
13:20 -10.1 °C -13.2 °C 34144.4 hPa ESE 25.9 km/h 57 km/h 69 % 0 mm 179 W/m2
13:25 -10.1 °C -13.3 °C 34144.4 hPa ESE 12.9 km/h 57 km/h 68 % 0 mm 139 W/m2
13:30 -10.1 °C -13.3 °C 34144.4 hPa SE 25.9 km/h 51.8 km/h 68 % 0 mm 141 W/m2
13:35 -10.1 °C -13.2 °C 34144.4 hPa ESE 28.5 km/h 44.1 km/h 69 % 0 mm 120 W/m2
13:40 -10.1 °C -13.3 °C 34144.4 hPa East 38.8 km/h 54.4 km/h 68 % 0 mm 121 W/m2
13:50 -10.1 °C -13.3 °C 34144.4 hPa SE 33.6 km/h 51.8 km/h 68 % 0 mm 120 W/m2
13:55 -10.1 °C -13.3 °C 34144.4 hPa ESE 18.2 km/h 46.7 km/h 68 % 0 mm 135 W/m2
14:00 -10.1 °C -13.3 °C 34144.4 hPa ESE 18.2 km/h 44.1 km/h 68 % 0 mm 132 W/m2
14:10 -10.1 °C -13.3 °C 34144.4 hPa ESE 10.3 km/h 51.8 km/h 68 % 0 mm 116 W/m2
14:15 -10.1 °C -13.2 °C 34144.4 hPa ESE 25.9 km/h 49.2 km/h 69 % 0 mm 148 W/m2
14:25 -9.9 °C -13.2 °C 34154.6 hPa SE 15.6 km/h 44.1 km/h 68 % 0 mm 227 W/m2
14:35 -9.8 °C -13 °C 34144.4 hPa ESE 10.3 km/h 44.1 km/h 68 % 0 mm 260 W/m2
14:40 -9.6 °C -12.9 °C 34144.4 hPa ESE 36.2 km/h 44.1 km/h 68 % 0 mm 283 W/m2
14:50 -9.6 °C -13.1 °C 34144.4 hPa ESE 33.6 km/h 46.7 km/h 66 % 0 mm 214 W/m2
14:55 -9.6 °C -12.9 °C 34154.6 hPa SE 25.9 km/h 46.7 km/h 67 % 0 mm 211 W/m2
15:00 -9.6 °C -13.1 °C 34154.6 hPa SE 10.3 km/h 44.1 km/h 66 % 0 mm 190 W/m2
15:10 -9.6 °C -13 °C 34154.6 hPa East 18.2 km/h 44.1 km/h 67 % 0 mm 176 W/m2
15:15 -9.7 °C -13.1 °C 34154.6 hPa SE 12.9 km/h 44.1 km/h 67 % 0 mm 172 W/m2
15:20 -9.7 °C -13.1 °C 34154.6 hPa East 7.7 km/h 46.7 km/h 67 % 0 mm 171 W/m2
15:25 -9.7 °C -13.1 °C 34164.7 hPa ESE 25.9 km/h 46.7 km/h 67 % 0 mm 148 W/m2
15:30 -9.7 °C -12.9 °C 34154.6 hPa SE 20.8 km/h 38.8 km/h 68 % 0 mm 146 W/m2
15:40 -9.7 °C -12.9 °C 34164.7 hPa ESE 10.3 km/h 38.8 km/h 68 % 0 mm 155 W/m2
15:45 -9.7 °C -12.9 °C 34164.7 hPa ESE 10.3 km/h 33.6 km/h 68 % 0 mm 141 W/m2
15:50 -9.7 °C -12.9 °C 34164.7 hPa ESE 12.9 km/h 31.1 km/h 68 % 0 mm 113 W/m2
16:00 -9.8 °C -13 °C 34164.7 hPa ESE 7.7 km/h 36.2 km/h 68 % 0 mm 74 W/m2
16:10 -9.8 °C -12.9 °C 34164.7 hPa ESE 18.2 km/h 33.6 km/h 69 % 0 mm 74 W/m2
16:15 -9.8 °C -12.9 °C 34164.7 hPa ESE 12.9 km/h 28.5 km/h 69 % 0 mm 65 W/m2
16:25 -9.9 °C -13 °C 34164.7 hPa East 7.7 km/h 36.2 km/h 69 % 0 mm 62 W/m2
16:30 -9.8 °C -12.9 °C 34164.7 hPa East 5.1 km/h 36.2 km/h 69 % 0 mm 58 W/m2
16:35 -9.9 °C -12.9 °C 34164.7 hPa ENE 5.1 km/h 33.6 km/h 70 % 0 mm 58 W/m2
16:40 -9.9 °C -12.9 °C 34164.7 hPa ESE 20.8 km/h 31.1 km/h 70 % 0 mm 58 W/m2
16:45 -9.9 °C -12.9 °C 34178.3 hPa SE 15.6 km/h 31.1 km/h 70 % 0 mm 56 W/m2
16:55 -9.8 °C -12.9 °C 34178.3 hPa SSE 23.3 km/h 36.2 km/h 69 % 0 mm 42 W/m2
17:00 -9.9 °C -13 °C 34178.3 hPa ESE 12.9 km/h 28.5 km/h 69 % 0 mm 32 W/m2
17:10 -9.9 °C -13 °C 34178.3 hPa ENE 12.9 km/h 36.2 km/h 69 % 0 mm 23 W/m2
17:15 -9.9 °C -12.9 °C 34178.3 hPa ESE 23.3 km/h 23.3 km/h 70 % 0 mm 19 W/m2
17:25 -10 °C -13 °C 34188.4 hPa ESE 20.8 km/h 28.5 km/h 70 % 0 mm 16 W/m2
17:30 -10.1 °C -13 °C 34188.4 hPa ESE 25.9 km/h 31.1 km/h 70 % 0 mm 14 W/m2
17:40 -10.1 °C -13.1 °C 34188.4 hPa ESE 23.3 km/h 36.2 km/h 70 % 0 mm 7 W/m2
17:45 -10.1 °C -13.1 °C 34198.6 hPa SE 18.2 km/h 36.2 km/h 70 % 0 mm 7 W/m2
17:50 -10.1 °C -13.1 °C 34198.6 hPa South 18.2 km/h 31.1 km/h 70 % 0 mm 5 W/m2
18:00 -10.2 °C -13.2 °C 34198.6 hPa SSE 15.6 km/h 31.1 km/h 70 % 0 mm 0 W/m2
18:10 -10.2 °C -13.2 °C 34198.6 hPa East 12.9 km/h 28.5 km/h 70 % 0 mm 0 W/m2
18:15 -10.2 °C -13.2 °C 34198.6 hPa SE 5.1 km/h 28.5 km/h 70 % 0 mm 0 W/m2
18:20 -10.2 °C -13.1 °C 34198.6 hPa SSE 10.3 km/h 23.3 km/h 71 % 0 mm 0 W/m2
18:25 -10.3 °C -13.1 °C 34212.1 hPa South 10.3 km/h 15.6 km/h 72 % 0 mm 0 W/m2
18:30 -10.4 °C -13.2 °C 34212.1 hPa SSW 12.9 km/h 18.2 km/h 72 % 0 mm 0 W/m2
18:40 -10.3 °C -13.2 °C 34212.1 hPa ESE 2.6 km/h 28.5 km/h 71 % 0 mm 0 W/m2
18:45 -10.4 °C -13.1 °C 34212.1 hPa ESE 2.6 km/h 25.9 km/h 73 % 0 mm 0 W/m2
18:50 -10.6 °C -12.9 °C 34222.3 hPa SE 2.6 km/h 18.2 km/h 75 % 0 mm 0 W/m2
19:00 -10.7 °C -12.9 °C 34235.8 hPa SE 12.9 km/h 15.6 km/h 77 % 0 mm 0 W/m2
19:10 -10.9 °C -12.8 °C 34235.8 hPa SSE 7.7 km/h 25.9 km/h 80 % 7.62 mm 0 W/m2
19:15 -11.1 °C -12.7 °C 34235.8 hPa SE 7.7 km/h 12.9 km/h 82 % 7.62 mm 0 W/m2
19:20 -11.2 °C -12.7 °C 34235.8 hPa ESE 5.1 km/h 12.9 km/h 84 % 12.7 mm 0 W/m2
19:30 -11.4 °C -12.6 °C 34246 hPa SE 5.1 km/h 10.3 km/h 87 % 12.7 mm 0 W/m2
19:40 -11.6 °C -12.6 °C 34246 hPa ESE 5.1 km/h 12.9 km/h 89 % 20.32 mm 0 W/m2
19:45 -11.6 °C -12.5 °C 34246 hPa ESE 7.7 km/h 12.9 km/h 90 % 20.32 mm 0 W/m2
19:50 -11.7 °C -12.6 °C 34246 hPa ESE 5.1 km/h 12.9 km/h 90 % 25.4 mm 0 W/m2
20:05 -11.7 °C -12.5 °C 34246 hPa ESE 5.1 km/h 15.6 km/h 91 % 38.1 mm 0 W/m2
20:10 -11.7 °C -12.4 °C 34256.2 hPa Calm   15.6 km/h 92 % 33.02 mm 0 W/m2
20:15 -11.7 °C -12.4 °C 34246 hPa ESE 5.1 km/h 12.9 km/h 92 % 38.1 mm 0 W/m2
20:20 -11.7 °C -12.4 °C 34246 hPa ESE 10.3 km/h 12.9 km/h 92 % 33.02 mm 0 W/m2
20:25 -11.7 °C -12.3 °C 34246 hPa SE 7.7 km/h 28.5 km/h 93 % 38.1 mm 0 W/m2
20:30 -11.7 °C -12.3 °C 34256.2 hPa SE 10.3 km/h 28.5 km/h 93 % 33.02 mm 0 W/m2
20:35 -11.6 °C -12.2 °C 34256.2 hPa ESE 2.6 km/h 20.8 km/h 93 % 38.1 mm 0 W/m2
20:40 -11.6 °C -12.2 °C 34256.2 hPa ESE 7.7 km/h 23.3 km/h 93 % 38.1 mm 0 W/m2
20:50 -11.6 °C -12.2 °C 34256.2 hPa ESE 7.7 km/h 20.8 km/h 93 % 45.72 mm 0 W/m2
20:55 -11.6 °C -12.1 °C 34256.2 hPa ESE 10.3 km/h 20.8 km/h 94 % 38.1 mm 0 W/m2
21:00 -11.6 °C -12.1 °C 34256.2 hPa SE 10.3 km/h 20.8 km/h 94 % 45.72 mm 0 W/m2
21:10 -11.6 °C -12.1 °C 34256.2 hPa SSE 7.7 km/h 23.3 km/h 94 % 38.1 mm 0 W/m2
21:15 -11.6 °C -12.1 °C 34256.2 hPa SSE 7.7 km/h 23.3 km/h 94 % 38.1 mm 0 W/m2
21:20 -11.6 °C -12.1 °C 34256.2 hPa ESE 10.3 km/h 28.5 km/h 94 % 45.72 mm 0 W/m2
21:30 -11.6 °C -12.1 °C 34256.2 hPa ESE 12.9 km/h 23.3 km/h 94 % 45.72 mm 0 W/m2
21:40 -11.6 °C -12.1 °C 34256.2 hPa ESE 12.9 km/h 20.8 km/h 94 % 38.1 mm 0 W/m2
21:45 -11.6 °C -12 °C 34256.2 hPa SSE 20.8 km/h 23.3 km/h 95 % 33.02 mm 0 W/m2
21:55 -11.6 °C -12.1 °C 34269.7 hPa SE 7.7 km/h 20.8 km/h 95 % 33.02 mm 0 W/m2
22:00 -11.6 °C -12.1 °C 34269.7 hPa ESE 7.7 km/h 20.8 km/h 95 % 25.4 mm 0 W/m2
22:10 -11.6 °C -12.1 °C 34269.7 hPa SE 7.7 km/h 20.8 km/h 95 % 20.32 mm 0 W/m2
22:15 -11.7 °C -12.1 °C 34269.7 hPa SE 10.3 km/h 23.3 km/h 95 % 20.32 mm 0 W/m2
22:20 -11.7 °C -12.1 °C 34269.7 hPa ESE 2.6 km/h 23.3 km/h 95 % 12.7 mm 0 W/m2
22:30 -11.7 °C -12.1 °C 34269.7 hPa ESE 10.3 km/h 20.8 km/h 95 % 12.7 mm 0 W/m2
22:40 -11.7 °C -12.1 °C 34269.7 hPa ENE 10.3 km/h 20.8 km/h 95 % 12.7 mm 0 W/m2
22:45 -11.7 °C -12.1 °C 34269.7 hPa ESE 12.9 km/h 23.3 km/h 95 % 12.7 mm 0 W/m2
22:55 -11.7 °C -12.2 °C 34279.9 hPa SE 2.6 km/h 18.2 km/h 95 % 12.7 mm 0 W/m2
23:00 -11.8 °C -12.2 °C 34279.9 hPa ESE 7.7 km/h 18.2 km/h 95 % 12.7 mm 0 W/m2
23:10 -11.8 °C -12.2 °C 34279.9 hPa ESE 20.8 km/h 25.9 km/h 95 % 12.7 mm 0 W/m2
23:15 -11.8 °C -12.2 °C 34279.9 hPa ESE 5.1 km/h 25.9 km/h 95 % 12.7 mm 0 W/m2
23:20 -11.8 °C -12.2 °C 34279.9 hPa SE 5.1 km/h 20.8 km/h 95 % 12.7 mm 0 W/m2
23:25 -11.8 °C -12.2 °C 34279.9 hPa ESE 7.7 km/h 20.8 km/h 95 % 12.7 mm 0 W/m2
23:30 -11.8 °C -12.2 °C 34279.9 hPa East 5.1 km/h 20.8 km/h 95 % 12.7 mm 0 W/m2
23:40 -11.8 °C -12.3 °C 34279.9 hPa ESE 5.1 km/h 25.9 km/h 95 % 7.62 mm 0 W/m2
23:50 -11.8 °C -12.3 °C 34279.9 hPa ESE 5.1 km/h 20.8 km/h 95 % 7.62 mm 0 W/m2
23:55 -11.8 °C -12.3 °C 34279.9 hPa SE 18.2 km/h 20.8 km/h 95 % 7.62 mm 0 W/m2
Avec l'autorisation de Weather Underground - 1.5 mb